Regional Weather Roundup
Issued by NWS

Home | Current Version | Previous Version | Graphics & Text | Print | Product List | Glossary On
Versions: 1 2 3 4 5 6 7 8 9 10 11 12 13 14 15 16 17 18 19 20 21 22 23 24 25 26 27 28 29 30 31 32 33 34 35 36 37 38 39 40 41 42 43 44 45 46 47 48 49 50
000
ASUS43 KMKX 271900
RWRWI

WISCONSIN REGIONAL WEATHER ROUNDUP
NATIONAL WEATHER SERVICE MILWAUKEE/SULLIVAN WI
200 PM CDT MON APR 27 2015

NOTE: "FAIR" INDICATES FEW OR NO CLOUDS BELOW 12,000 FEET WITH NO
SIGNIFICANT WEATHER AND/OR OBSTRUCTIONS TO VISIBILITY.

WIZ001-002-006>008-014>016-023>028-272000-
NORTHWEST WISCONSIN

CITY           SKY/WX    TMP DP  RH WIND       PRES   REMARKS
SUPERIOR ARPT  SUNNY     61  31  32 E3        30.20F
ASHLAND        SUNNY     60  32  34 NE10      30.20F
HAYWARD        SUNNY     64  25  22 N7G16     30.17F
SIREN          SUNNY     64  24  22 NE9G18    30.20F
CUMBERLAND     SUNNY     61  27  27 N12G17    30.19F
RICE LAKE      SUNNY     63  28  27 N10       30.20F
CHETEK         SUNNY     62  32  32 NW10      30.18F
LADYSMITH      SUNNY     63  30  29 N12G18    30.18F
EAU CLAIRE     NOT AVBL
MENOMONIE      SUNNY     65  26  23 N15       30.18F
NEW RICHMOND   SUNNY     64  23  20 NW13      30.20F
OSCEOLA        SUNNY     64  29  27 NW6       30.23F
$$

WIZ003>005-009-010-017-018-272000-
NORTH CENTRAL WISCONSIN

CITY           SKY/WX    TMP DP  RH WIND       PRES   REMARKS
MANITOWISH WTR SUNNY     57  30  35 N7G16     30.16S
ARBOR VITAE    SUNNY     60  30  32 N12G18    30.15S
WOODRUFF       SUNNY     60  30  32 N12G18    30.15S
RHINELANDER    SUNNY     60  27  28 NE10G21   30.14F
EAGLE RIVER    SUNNY     58  25  27 N13G23    30.14S
LAND O LAKES   SUNNY     58  27  30 N9G18     30.16S
PHILLIPS       SUNNY     60  31  34 N6        30.15F
TOMAHAWK       SUNNY     61  28  28 N12G17    30.14F
MEDFORD        SUNNY     61  31  32 N8        30.14F
MERRILL        SUNNY     62  31  31 N13G23    30.12F
$$

WIZ029-030-035-036-043>047-272000-
CENTRAL WISCONSIN

CITY           SKY/WX    TMP DP  RH WIND       PRES   REMARKS
WAUSAU         SUNNY     64  29  26 N12G18    30.11F
MOSINEE        SUNNY     61  28  29 NW12G18   30.13F
MARSHFIELD     SUNNY     64  31  28 N10       30.13F
STEVENS POINT  SUNNY     60  29  30 NW13      30.12F
WAUPACA        SUNNY     65  29  25 N6        30.11F
WAUTOMA        NOT AVBL
WISC RAPIDS    SUNNY     65  29  25 N9G21     30.14F
CAMP DOUGLAS   NOT AVBL
$$

WIZ011>013-019>022-031-037>040-048>050-272000-
NORTHEAST WISCONSIN

CITY           SKY/WX    TMP DP  RH WIND       PRES   REMARKS
ANTIGO         SUNNY     60  32  34 NW13      30.12F
SHAWANO        SUNNY     64  30  28 E8        30.11F
OCONTO         SUNNY     51  35  55 E10       30.13F
STURGEON BAY   SUNNY     54  34  47 N13       30.14F
GREEN BAY      SUNNY     60  36  40 NE10      30.12F
MANITOWOC      NOT AVBL
APPLETON       MOSUNNY   59  28  31 N12G17    30.12F
CLINTONVILLE   SUNNY     63  30  29 SE3       30.10F
OSHKOSH        SUNNY     58  34  40 VRB3      30.12F
$$

WIZ032>034-041-042-053>061-272000-
SOUTHWEST WISCONSIN

CITY           SKY/WX    TMP DP  RH WIND       PRES   REMARKS
LA CROSSE      SUNNY     65  32  29 NW12G21   30.15F
SPARTA         SUNNY     63  29  28 NW15G21   30.15F
VIROQUA        SUNNY     60  33  35 N7        30.16F
BOSCOBEL       SUNNY     65  32  29 NW12      30.15F
PRAIRIE DU CHI SUNNY     61  30  31 NW8       30.16F
PLATTEVILLE    SUNNY     61  33  35 N8        30.15S
$$

WIZ056-057-062-063-064-067-068-272000-
SOUTH CENTRAL WISCONSIN

CITY           SKY/WX    TMP DP  RH WIND       PRES   REMARKS
REEDSBURG      SUNNY     62  34  35 N8        30.12F
BARABOO/DELLS  SUNNY     62  29  28 NE8       30.12F
LONE ROCK      NOT AVBL
MINERAL POINT  SUNNY     63  28  27 NW3       30.14S
MADISON        MOSUNNY   63  32  31 N8        30.11F
MIDDLETON      SUNNY     64  29  26 N13       30.12F
WATERTOWN      SUNNY     59  35  39 N12G21    30.11S
MONROE         SUNNY     61  34  36 N12G22    30.12F
JANESVILLE     MOSUNNY   63  30  29 N9G18     30.11F
$$

WIZ051-052-058>065-066-070>072-272000-
SOUTHEAST WISCONSIN

CITY           SKY/WX    TMP DP  RH WIND       PRES   REMARKS
MILWAUKEE      MOSUNNY   49  35  58 NE12      30.15R
WAUKESHA       PTSUNNY   55  36  47 E10G21    30.13R
MILWAUKEE/TIMM SUNNY     52  30  43 E10       30.14R
RACINE         SUNNY     50  35  56 N13       30.15R
BURLINGTON     MOSUNNY   57  32  38 NE12G20   30.10S
KENOSHA        SUNNY     55  37  50 NE14G23   30.12S
FOND DU LAC    SUNNY     58  34  40 NE14      30.13S
SHEBOYGAN      SUNNY     51  35  54 E15       30.14R
WEST BEND      MOSUNNY   55  32  41 N9G20     30.11S
JUNEAU         SUNNY     57  33  39 N10G21    30.12F
$$

LSZ147-162-272000-
LAKE SUPERIOR

STATION/POSITION TIME  TEMP    WIND        PRES    WAVE
                       AIR SEA DIR/SP/G            HT/PER
                 (UTC) (F)     (DEG/KT/KT) (MB)    (FT/S)
W MID LAKE BUOY  1750   37 35  230/  6/  6 1024.5F   0
DEVILS ISLAND    1800   49     210/  4/  5 1023.7F
PORT WING        1800   40     310/  5/  7 1023.7F
SAXON HARBOR     1800   44      50/  3/  4 1023.7
$$

LMZ867-665-643>646-272000-
LAKE MICHIGAN

STATION/POSITION TIME  TEMP    WIND        PRES    WAVE
                       AIR SEA DIR/SP/G            HT/PER
                 (UTC) (F)     (DEG/KT/KT) (MB)    (FT/S)
CHAMBERS ISLAND  1800   45      40/ 13/ 17 1020.3S
NORTHPORT PIER   1800   44     350/  9/ 11 1020.7R
SISTER BAY       1817   56      10/  8/ 13   N/A
KEWAUNEE LAKESHO 1800   44      70/  3/  7 1020.2R
SHEBOYGAN LAKESH 1800   41      30/ 11/ 13 1021.4S
PORT WASHINGTON  1800   45      40/ 13/ 15 1021.0
MILWAUKEE LAKESH 1800   41      40/ 10/ 12   N/A
KENOSHA   LAKESH 1800   42      30/ 10/ 12 1020.7R
$$

TC  - TEMPERATURE IN CELSIUS
VSB - VISIBILITY IN STATUTE MILES
WCI - WIND CHILL INDEX
HX  - HEAT INDEX




USA.gov is the U.S. government's official web portal to all federal, state and local government web resources and services.